Temp
17 18 18 18 19 20 20 20 21 20 20 20 21 21 21 21 21 21 20 26 26 25 25 24 24 25 24 23 24 21 19 20 25 26 27 25 26 28 29 27 27 27 26 27 26
17 17 18 18 19 19 20 21 21 21 21 21 21 21 21 21 21 19 27 26 26 25 24 24 25 24 22 24 23 21 19 22 23 26 27 25 27 28 30 28 26 26 26 28 24
17 17 17 18 19 19 19 20 21 22 21 21 21 21 21 21 20 24 27 27 26 25 25 25 25 24 24 24 25 22 22 23 24 24 25 27 28 29 28 28 27 26 25 25 23
16 17 17 18 19 20 20 20 21 22 22 21 21 21 22 21 25 27 28 28 26 25 24 24 23 23 23 24 24 25 24 25 25 26 27 27 29 31 28 29 29 26 26 25 23
16 17 17 18 19 21 21 20 21 22 22 22 21 21 21 21 21 27 27 27 25 25 24 24 23 23 24 25 25 25 25 26 25 24 25 27 28 30 30 29 27 25 24 23 23
16 16 17 19 20 21 21 21 22 22 22 22 21 21 21 20 27 27 27 26 26 25 25 24 24 23 24 25 25 26 26 25 25 26 26 26 28 29 30 27 25 23 24 23 23
15 16 17 19 20 21 21 22 22 22 22 22 21 20 19 20 26 26 26 27 26 26 25 26 26 26 25 25 25 25 26 25 27 28 29 26 27 27 28 29 26 23 24 24 24
15 16 17 19 20 21 22 22 23 22 22 22 21 19 19 25 25 27 26 26 26 26 26 27 27 26 26 25 23 24 23 24 25 27 28 29 25 26 26 27 28 25 25 25 24
16 17 18 19 21 22 22 23 23 22 21 21 20 19 19 24 24 27 26 26 27 26 26 27 27 24 23 22 21 21 23 24 24 26 27 28 26 26 24 25 25 25 24 25 24
16 18 18 20 21 23 23 22 21 21 20 19 19 20 21 25 26 27 27 26 25 26 26 27 20 22 18 19 20 22 24 24 24 26 26 25 24 24 26 24 25 25 24 23 24
16 18 20 21 21 24 23 21 19 19 19 23 22 22 24 27 28 27 26 25 25 26 24 24 22 21 21 21 23 24 24 23 23 25 26 25 24 24 24 26 25 24 23 22 23
17 18 19 21 22 23 23 21 22 23 19 20 22 22 25 26 25 26 27 24 23 22 23 22 21 22 23 23 23 22 22 22 23 24 24 25 25 25 26 27 26 25 23 23 22
16 18 19 22 22 22 20 23 23 23 20 22 22 22 23 24 23 25 26 25 25 23 22 21 23 25 25 24 23 22 22 23 24 26 25 25 23 24 26 26 25 26 24 24 23
17 17 17 22 20 20 21 23 24 23 17 21 24 24 24 24 24 26 27 25 25 23 22 22 24 25 24 24 24 23 24 25 26 24 23 24 20 22 24 24 24 22 21 20 21
17 17 19 19 19 18 22 23 24 22 19 26 27 28 25 25 27 26 27 26 24 24 23 23 25 24 24 24 26 25 26 25 26 24 22 22 20 21 23 23 21 20 20 20 19
16 18 19 18 18 21 21 23 23 19 19 25 27 27 26 27 28 28 26 26 25 24 24 24 24 25 24 26 25 26 25 21 18 19 20 22 22 20 21 21 20 20 20 19 19
17 19 19 19 20 22 22 19 18 17 23 24 24 24 25 24 24 25 26 24 23 22 22 23 24 25 26 24 23 22 20 19 20 19 19 21 21 20 20 20 20 19 18 18 18
17 19 19 21 22 22 21 17 19 21 22 23 23 23 23 22 23 23 23 22 21 22 20 21 22 24 24 23 23 22 20 18 20 18 19 20 20 19 20 20 20 20 17 18 17
17 19 20 20 21 22 15 16 17 20 21 21 22 22 21 22 23 22 22 21 20 19 21 20 22 22 22 22 23 22 19 21 18 18 17 18 20 18 19 18 18 18 17 17 17
13 13 19 21 21 20 15 16 18 20 21 21 20 20 19 20 21 21 21 20 21 19 19 19 20 20 22 22 20 21 20 19 15 18 18 18 20 19 16 15 16 15 15 15 16
12 12 20 20 20 13 15 16 20 21 20 20 19 19 18 17 18 19 19 18 19 19 17 16 17 19 21 18 18 18 18 16 15 14 15 16 16 17 14 14 13 13 14 13 14
7 14 20 20 14 11 15 16 18 20 19 19 18 18 18 17 18 19 16 17 17 17 17 16 14 16 18 16 18 18 16 13 12 15 12 13 13 15 13 13 13 13 13 13 13
5 6 18 18 13 12 13 17 18 19 19 19 18 18 18 18 17 18 17 17 17 17 17 17 13 13 15 16 16 15 15 15 12 10 12 12 13 13 13 13 13 12 12 12 13
7 10 9 8 9 13 13 16 17 19 18 19 17 16 16 16 15 16 16 17 17 17 16 14 11 13 13 15 15 15 15 15 13 8 11 12 14 14 13 12 12 12 11 11 11
6 8 8 9 10 10 12 15 16 18 18 17 17 16 16 15 15 14 14 14 15 15 13 12 12 13 13 14 14 14 14 14 13 12 11 14 13 13 13 12 12 12 12 12 12
6 6 5 6 9 11 11 13 14 15 17 17 15 16 15 14 15 14 14 13 13 14 12 9 11 12 12 13 14 13 13 13 13 13 12 12 12 13 12 12 12 11 11 11 11
7 7 5 7 9 11 11 11 14 13 16 16 15 15 15 15 14 13 13 12 13 12 10 11 9 8 10 12 13 11 12 13 14 15 14 12 12 10 11 10 11 10 10 11 11
Height
805 802 798 795 791 788 785 783 781 780 779 778 777 777 775 773 771 768 767 763 763 764 765 766 767 768 768 770 770 775 809 819 798 791 779 768 772 754 748 756 756 755 752 747 752
805 802 797 794 790 787 784 781 779 778 777 776 775 775 773 771 768 764 760 760 762 763 765 765 767 767 773 772 774 786 811 803 785 774 774 771 769 763 759 761 761 757 750 751 755
805 801 796 793 789 786 783 780 778 776 775 775 775 774 772 770 768 758 756 758 761 763 765 766 766 767 774 772 773 783 797 784 774 772 771 770 766 759 763 770 760 759 754 753 757
805 800 795 791 787 784 781 778 776 774 773 774 774 773 771 770 779 755 754 756 760 763 766 766 768 774 780 779 771 782 775 773 767 762 767 768 759 757 762 761 751 751 746 751 758
804 799 794 789 785 782 779 776 774 772 772 772 773 772 771 773 766 755 755 756 759 762 765 767 772 773 778 774 773 777 771 766 762 762 763 758 763 758 755 751 747 753 755 755 759
803 797 792 787 783 779 776 774 771 770 770 771 772 772 772 780 754 754 755 756 757 760 762 765 766 767 771 771 774 767 766 767 760 758 757 764 761 754 751 750 753 757 758 757 757
802 795 790 785 780 776 773 770 769 768 769 770 771 771 772 764 753 753 754 754 756 757 759 759 760 763 765 772 765 765 772 767 760 755 755 757 767 765 749 747 758 757 756 757 757
800 794 787 782 778 773 770 767 766 766 767 769 769 771 770 752 751 750 752 754 755 756 757 757 758 760 763 763 770 775 777 789 765 756 753 754 785 758 749 751 751 757 755 755 754
798 792 786 780 775 770 767 765 765 765 766 768 769 770 768 752 749 748 750 751 753 755 755 757 759 765 768 784 795 791 796 787 778 756 757 760 774 748 747 750 754 751 755 751 752
797 790 784 778 773 768 765 764 765 766 767 768 769 774 756 749 745 746 748 750 754 755 757 759 771 779 790 797 814 800 791 785 786 764 762 769 773 755 746 750 750 750 750 753 748
796 788 782 776 771 767 765 764 769 770 767 762 759 756 747 743 744 743 745 749 755 760 775 767 785 793 785 785 781 782 785 791 779 762 763 770 772 760 751 747 751 752 751 749 745
795 787 780 774 769 767 766 766 771 771 769 749 744 743 740 742 749 741 743 756 762 777 770 780 790 771 770 772 778 782 789 790 777 763 765 763 765 757 750 747 747 749 750 748 746
793 786 778 772 767 767 767 768 766 764 770 745 737 736 735 740 749 742 741 747 757 771 773 785 767 760 767 773 779 779 785 781 779 759 760 762 774 766 753 749 746 743 744 745 745
791 784 776 770 770 768 767 766 764 762 790 761 739 729 729 731 743 728 731 741 754 766 768 774 758 763 769 773 768 783 761 762 763 775 792 767 807 780 763 759 754 756 754 752 747
789 782 774 771 771 770 770 764 762 763 814 741 732 719 725 733 727 731 725 736 755 757 763 770 760 764 770 767 755 768 751 758 758 772 783 782 799 784 764 765 770 765 758 754 748
786 779 772 771 770 769 767 763 763 796 806 748 732 732 735 729 728 723 728 727 735 752 753 756 746 750 755 749 751 748 755 770 782 788 805 783 785 792 777 775 772 765 760 753 745
783 776 771 770 770 768 766 765 797 809 757 760 753 745 740 746 744 739 739 747 760 774 774 761 756 746 743 758 757 761 781 806 805 810 809 782 789 790 780 773 768 768 763 756 748
781 774 771 771 770 768 766 784 801 777 769 756 753 751 756 753 751 750 751 762 761 762 777 781 782 758 750 757 765 768 778 806 810 815 808 783 794 789 776 771 766 764 764 757 752
780 774 772 773 771 769 777 803 797 780 772 772 761 765 766 759 756 756 762 770 769 768 778 784 777 759 758 756 757 769 789 776 796 800 812 798 783 782 777 773 769 768 765 761 756
785 780 774 773 771 770 790 797 786 773 771 770 782 776 781 775 769 766 767 771 772 770 769 777 784 770 763 757 765 769 771 793 808 806 810 798 784 783 791 787 778 773 772 768 762
790 787 778 772 770 781 798 794 777 771 771 777 783 784 787 790 782 780 783 782 776 779 778 785 789 781 766 780 786 785 789 794 802 810 816 814 800 785 794 793 790 784 778 773 767
802 797 779 771 790 802 796 789 779 775 773 776 780 784 787 788 787 784 797 793 783 782 791 793 800 801 788 783 778 778 795 807 824 810 821 818 809 789 790 789 788 788 785 779 772
817 812 784 778 805 806 796 786 780 777 779 779 785 782 783 788 793 787 790 791 787 788 792 792 813 820 805 798 787 794 795 798 813 827 818 821 809 790 789 789 788 787 783 780 773
819 819 805 799 808 805 802 791 785 775 781 779 785 787 790 793 794 794 795 790 789 788 789 795 811 809 816 801 798 799 797 796 807 845 816 810 797 792 791 790 787 784 783 780 778
825 828 827 824 810 814 807 797 789 783 780 780 787 788 789 795 797 800 800 798 793 793 797 803 808 805 803 799 797 799 798 797 804 806 813 797 799 794 792 793 791 788 785 782 780
833 835 830 828 817 812 808 804 799 794 783 786 789 789 791 796 794 798 797 799 799 795 799 809 812 806 806 798 797 799 797 796 797 795 799 797 796 787 789 789 790 789 786 782 778
833 832 834 827 821 814 813 810 800 798 790 788 790 791 790 788 788 788 790 792 791 795 805 805 815 826 819 802 798 806 792 790 787 785 787 795 792 795 792 791 789 786 784 780 777
Wind_Speed
26 27 24 26 23 18 15 12 9 8 8 7 8 10 13 16 17 9 5 6 2 7 3 2 1 1 0 1 3 4 4 1 4 3 6 4 9 6 2 7 3 6 5 5 19
28 29 25 27 23 21 17 14 10 9 8 8 8 9 12 15 16 9 11 9 5 5 5 5 2 2 2 1 1 4 4 8 6 3 4 8 2 4 3 1 3 2 4 14 19
29 32 27 26 23 21 18 16 12 8 8 8 8 9 12 14 4 6 4 17 8 6 4 2 2 2 2 1 2 3 5 5 7 8 5 4 6 1 5 4 4 9 7 10 7
32 33 29 27 23 21 18 18 14 8 7 7 6 7 11 5 1 2 3 7 14 8 4 3 4 2 1 3 3 2 7 6 8 6 5 5 3 2 8 5 6 9 17 12 8
35 34 31 30 25 21 18 18 14 9 7 6 4 5 4 3 8 5 2 10 14 10 7 4 3 2 3 2 2 4 6 4 10 11 8 5 8 5 3 3 3 8 9 14 9
37 37 33 30 26 22 19 17 13 8 5 4 3 3 1 3 3 4 10 13 12 14 6 8 6 7 3 2 1 2 4 7 5 5 5 8 5 3 5 7 9 12 14 13 13
41 40 37 34 29 21 20 16 9 5 4 3 3 0 1 13 3 7 15 16 15 11 5 8 5 3 3 6 1 4 5 7 3 1 2 8 3 6 8 0 9 13 15 14 15
43 41 38 36 30 23 20 12 5 2 2 3 3 2 6 6 8 13 15 15 14 14 16 12 9 3 3 2 7 5 4 4 5 1 2 3 7 10 9 5 8 9 9 10 11
44 42 38 36 29 23 16 7 1 2 2 4 4 3 8 5 6 13 17 11 10 15 17 15 3 2 5 4 5 5 3 4 9 4 2 3 7 13 8 10 9 8 8 10 10
45 43 39 36 27 20 11 5 3 3 4 4 1 2 5 3 5 16 22 21 4 5 3 4 5 2 3 4 4 4 3 2 4 5 3 4 8 11 3 8 11 8 7 8 9
46 43 38 36 27 14 8 3 4 3 3 6 7 6 7 7 5 7 20 7 2 2 4 2 2 7 9 7 6 3 3 5 8 8 1 5 5 9 6 2 4 7 8 9 12
47 43 38 33 24 6 7 4 2 6 9 12 18 13 26 4 4 8 12 7 6 7 3 3 7 9 4 3 6 6 5 10 9 11 6 4 5 5 4 3 3 6 8 9 8
48 43 39 33 12 3 5 6 21 10 3 8 6 7 7 12 9 13 10 5 5 7 6 7 12 4 3 5 7 7 6 6 10 2 3 2 6 4 4 3 6 3 5 5 9
48 44 42 29 2 12 3 21 19 5 4 7 4 6 6 8 5 13 14 7 3 11 7 5 6 8 5 7 2 3 7 6 3 3 4 3 4 5 3 7 4 10 13 10 11
50 46 34 14 8 3 12 22 15 3 4 3 3 7 6 7 3 5 12 5 10 7 7 9 4 5 4 7 4 9 5 3 4 3 3 4 2 6 3 7 9 11 11 11 10
50 45 22 6 6 7 20 17 2 5 6 4 4 2 5 3 2 2 4 4 5 5 1 10 3 5 7 3 5 5 1 6 4 4 1 4 2 3 3 1 3 9 11 12 13
50 35 11 3 2 15 20 4 4 4 5 5 4 6 1 5 6 6 4 5 6 4 4 5 6 2 2 4 5 6 5 3 4 4 4 3 3 5 4 4 5 6 11 11 12
49 23 6 5 11 12 6 5 1 2 3 4 5 8 4 6 4 8 4 3 8 4 3 4 5 5 5 4 3 3 4 5 5 3 4 4 4 4 1 1 3 5 7 9 14
45 17 4 12 12 7 5 3 5 3 5 7 8 4 5 5 3 3 4 3 5 6 2 1 2 3 7 4 3 2 3 2 3 2 3 3 1 3 5 13 14 14 14 17 15
24 14 5 19 11 3 4 4 3 3 5 4 4 7 5 6 5 6 4 6 3 7 1 1 2 2 2 2 9 5 1 2 3 2 4 4 4 2 8 9 13 16 15 13 15
8 4 11 25 2 5 3 4 1 3 3 5 4 5 5 6 5 6 10 5 8 5 8 6 2 5 1 4 3 3 2 4 3 4 5 2 5 5 3 2 6 9 12 14 15
7 3 18 18 4 2 1 3 5 3 5 5 4 3 2 3 4 4 4 5 8 3 4 5 2 2 3 7 3 3 4 5 4 2 2 2 5 4 5 4 5 6 6 9 12
3 3 11 11 3 3 6 3 2 4 3 2 2 2 2 1 1 3 5 4 8 5 2 1 2 2 6 5 4 6 3 4 3 3 5 4 5 4 5 5 6 7 8 7 11
3 4 4 5 2 3 5 3 4 4 3 1 3 4 4 4 4 2 4 2 4 2 10 3 3 6 6 5 1 4 5 1 4 3 3 5 10 9 8 9 9 9 8 8 8
3 1 1 4 4 4 3 5 4 1 1 3 3 2 3 2 3 2 1 4 3 4 4 4 3 3 4 5 2 4 6 6 6 7 6 4 7 7 3 4 5 5 7 8 6
2 3 4 4 4 5 5 5 8 9 1 1 4 4 3 5 5 4 3 3 5 2 3 2 2 2 4 7 6 6 8 9 9 7 7 7 6 2 4 4 4 7 6 8 8
5 3 3 4 5 3 2 5 4 7 4 5 2 3 3 4 8 7 7 5 7 6 5 3 5 3 3 2 2 5 5 4 3 2 2 4 4 4 4 7 6 6 6 8 7
Wind_Direction
14 11 6 3 1 355 350 342 313 300 299 303 310 320 326 327 329 310 247 217 186 212 204 210 55 193 262 317 152 128 60 183 244 200 273 330 20 307 85 133 210 195 180 204 158
12 7 4 2 358 354 348 345 324 295 290 292 302 316 323 326 324 252 252 211 210 205 203 191 131 39 17 281 127 100 124 216 215 225 268 317 25 278 83 249 340 39 350 162 152
9 6 3 1 356 352 347 343 332 295 282 290 306 321 324 324 325 253 346 215 201 222 219 159 62 57 11 291 193 152 191 218 256 241 275 269 310 208 101 340 224 172 201 173 188
8 6 3 0 355 349 344 342 334 302 269 277 300 322 327 336 191 295 357 184 208 219 188 106 53 60 229 221 218 191 233 193 270 229 213 236 235 313 138 220 265 211 184 171 186
7 4 3 0 354 345 341 339 330 309 266 257 286 327 338 14 253 246 203 162 186 193 187 151 144 192 249 238 194 204 260 268 263 279 218 265 245 190 261 190 103 124 179 195 191
4 3 1 357 352 343 338 334 325 309 270 242 256 322 65 287 253 267 208 179 186 189 192 173 202 197 278 297 164 251 245 271 287 284 230 165 247 133 251 145 129 153 191 205 201
3 1 358 356 352 344 335 328 320 304 281 223 216 230 164 239 262 327 210 212 209 199 195 221 229 177 163 314 226 278 313 340 269 232 217 174 198 204 235 156 149 181 197 212 212
1 359 356 354 352 343 336 323 303 247 237 195 181 151 250 264 300 243 213 228 239 235 241 263 267 207 165 281 2 1 48 3 279 21 295 113 272 255 240 236 250 183 191 204 215
360 358 355 351 349 342 342 336 307 175 152 158 147 157 266 282 249 208 206 220 241 250 254 266 266 101 36 79 359 1 247 281 319 200 219 195 280 273 160 182 224 252 195 219 219
358 355 352 348 346 345 355 19 72 112 115 119 120 15 262 232 200 212 215 232 251 350 328 159 48 76 45 77 218 249 279 305 256 289 140 285 266 281 255 181 216 241 259 219 223
357 354 348 344 343 345 7 114 17 10 198 217 217 226 273 264 278 203 208 177 107 75 198 12 83 234 233 198 212 269 263 271 279 271 157 229 257 297 300 115 305 278 270 247 212
356 353 347 342 337 353 37 62 341 297 294 227 244 242 246 72 315 288 175 152 143 214 180 22 243 232 250 226 223 240 241 271 277 265 177 303 307 306 6 323 257 263 252 264 293
354 352 345 341 336 20 326 6 347 351 272 293 220 229 210 162 223 260 165 170 169 186 179 181 241 57 213 287 268 245 196 234 224 344 331 17 340 351 328 1 315 285 250 270 258
351 350 345 341 85 344 328 340 346 358 23 278 252 256 147 138 227 209 192 147 198 195 182 214 274 250 265 260 223 275 225 246 247 105 242 51 274 295 313 312 347 358 22 358 348
348 347 339 345 311 322 333 338 340 74 333 255 240 170 156 164 191 222 176 119 183 189 123 238 238 254 204 229 208 241 311 254 230 175 91 341 70 266 265 13 14 16 4 354 343
346 345 337 351 314 341 341 336 20 46 253 316 335 300 158 207 270 100 154 90 167 188 168 230 211 179 220 244 209 252 307 37 49 94 17 232 134 304 36 311 8 7 358 357 355
343 344 329 312 329 335 339 22 48 163 323 342 342 344 357 356 16 4 156 167 182 145 237 296 250 287 88 57 0 57 58 339 330 356 219 280 19 249 69 35 51 351 346 344 356
341 347 333 346 -0 349 20 51 216 276 310 348 340 316 79 18 34 353 39 54 27 13 143 163 299 18 336 138 174 49 137 156 224 197 237 332 245 191 221 341 342 359 348 358 2
341 354 358 19 340 349 65 81 216 315 333 338 325 30 4 359 37 53 65 67 32 30 111 118 215 11 30 25 70 292 57 201 133 31 87 238 338 237 2 15 18 18 18 4 354
341 333 318 350 335 67 73 219 253 353 341 7 7 23 353 360 20 18 75 351 12 17 18 197 327 89 300 12 10 92 241 21 10 243 233 261 230 198 15 5 6 7 0 358 352
1 13 359 346 82 49 142 240 308 3 47 37 32 9 26 9 2 351 25 22 0 1 42 30 59 295 339 77 164 359 12 62 119 136 201 215 251 95 86 58 22 355 353 351 354
2 358 349 354 48 1 57 304 285 360 16 37 104 84 79 3 351 3 78 20 336 8 53 346 108 289 282 339 305 114 107 97 115 251 257 194 260 142 105 44 23 352 341 344 349
9 278 340 7 83 336 312 301 2 14 9 53 67 58 62 51 321 59 84 9 23 47 70 15 6 21 334 352 3 75 87 122 116 89 219 181 262 181 82 29 358 351 352 351 353
25 349 327 30 17 18 344 289 332 346 65 98 112 75 60 39 19 346 16 96 5 56 55 88 153 167 199 228 186 315 325 276 144 126 241 237 294 321 342 344 349 344 342 340 344
30 301 203 312 328 338 298 318 314 265 79 37 93 67 160 171 352 30 359 323 331 354 59 96 204 200 253 254 247 235 244 247 212 218 204 252 266 265 243 233 254 277 306 313 322
46 19 350 287 298 321 352 8 1 339 150 139 129 156 133 160 188 215 189 188 232 324 99 3 216 137 238 243 236 247 242 240 247 253 249 246 265 164 277 314 290 283 283 287 299
2 2 100 289 326 351 14 329 356 350 359 58 199 195 226 234 192 205 199 202 215 199 156 182 146 97 268 357 11 312 244 217 230 229 236 236 230 3 315 307 297 305 282 262 291